{"data":{"norad_id":45532,"intl_designator":"2020-025B","name":"STARLINK-1338","alt_names":[],"object_type":"PAYLOAD","status":"ACTIVE","operator":null,"country":"US","launch_date":"2020-04-22","launch_site_code":"AFETR","launch_vehicle":null,"mission":null,"orbit_class":"UNKNOWN","rcs_meters":null,"size_class":null,"mass_kg":null,"dimensions":null,"purposes":["comms"],"wikipedia_slug":null,"has_3d_model":false,"image_url":null,"decayed_at":null,"tle_current":{"epoch":"2026-05-25T04:43:39.757152Z","epoch_age_seconds":54085,"freshness":"FRESH","line1":"1 45532U 20025B   26145.19698793  .00051464  00000+0  49065-3 0  9994","line2":"2 45532  53.0448  71.3090 0004509  64.5789 295.5692 15.66284671337357","mean_motion":15.66284671,"eccentricity":0.0004509,"inclination_deg":53.0448,"raan_deg":71.309,"arg_perigee_deg":64.5789,"mean_anomaly_deg":295.5692,"bstar":0.00049065,"rev_number":33735,"period_min":91.937310417565,"perigee_km":366.50405940568,"apogee_km":372.58912046709,"semimajor_km":6747.6835899364,"source":"CELESTRAK","updated_at":"2026-05-25T13:38:16.420927Z"}}}